Meteo Giornale » Osservazioni meteo Repubblica Ceca » Praha-Ruzyne

ore: 11:00 - Osservazioni Meteo Praha-Ruzyne
Lat. 50° 6' N Lon. 14° 15' E Alt. 365 metri s.l.m.

poco_nuvoloso Europe/Prague

20 °C

Poco Nuvoloso

Temp. 24 Ore

12 °C

22 °C

Nord-Est

11.1 Km/h

Dew point 10 °C

Umidità 52 %

Visibilità  10 Km

Il sole sorge alle ore 05:40

Il sole tramonta alle ore 20:36

Data e Ora Cielo e Fenomeni T °C DP °C Um. % Pres. hPa Vis. km Vento km/h
Oggi h: 11:00 poco_nuvoloso Poco Nuvoloso 20 10 52 1024 10 NE 11.1
Oggi h: 10:30 poco_nuvoloso Poco Nuvoloso 19 9 52 1024 10 N 9.3
Oggi h: 10:00 poco_nuvoloso Poco Nuvoloso 19 9 52 1024 10 N/NE 9.3
Oggi h: 09:30 sereno Sereno 18 10 59 1024 10 NE 9.3
Oggi h: 09:00 sereno Sereno 17 9 59 1024 10 N/NE 9.3
Oggi h: 08:30 sereno Sereno 17 9 59 1024 10 N/NE 9.3
Oggi h: 08:00 sereno Sereno 16 9 63 1024 10 N 5.5
Oggi h: 07:30 sereno Sereno 14 9 71 1024 10 N 5.5
Oggi h: 07:00 sereno Sereno 13 8 71 1024 10 N 3.7
Oggi h: 06:30 sereno Sereno 12 8 76 1023 10 N 3.7
Oggi h: 06:00 sereno Sereno 12 8 76 1023 10 N 1.8
Oggi h: 05:30 sereno Sereno 12 8 76 1023 10 N 5.5
Oggi h: 05:00 sereno Sereno 12 8 76 1023 10 N 5.5
Oggi h: 04:30 sereno Sereno 12 8 76 1023 10 N 5.5
Oggi h: 04:00 sereno Sereno 12 8 76 1023 10 N 7.4
Oggi h: 03:30 sereno Sereno 13 8 71 1023 10 N 7.4
Oggi h: 03:00 sereno Sereno 13 8 71 1023 10 N 5.5
Oggi h: 02:30 sereno Sereno 14 8 67 1023 10 N 3.7
Oggi h: 02:00 sereno Sereno 13 8 71 1023 10 N 3.7
Oggi h: 01:30 sereno Sereno 14 8 67 1023 10 E 7.4
Oggi h: 01:00 sereno Sereno 15 8 62 1023 10 E 11.1
Oggi h: 00:30 sereno Sereno 15 8 62 1023 10 E 11.1
Oggi h: 00:00 sereno Sereno 16 8 58 1023 10 E 14.8
Ieri h: 23:30 sereno Sereno 15 8 62 1023 10 E 14.8
Ieri h: 23:00 sereno Sereno 15 8 62 1023 10 E 11.1
Ieri h: 22:30 sereno Sereno 16 8 58 1023 10 E 11.1
Ieri h: 22:00 sereno Sereno 18 8 51 1022 10 E/SE 11.1
Ieri h: 21:30 sereno Sereno 18 8 51 1022 10 E/SE 7.4
Ieri h: 21:00 sereno Sereno 18 8 51 1022 10 SE 9.3
Ieri h: 20:30 sereno Sereno 19 8 48 1022 10 N 7.4
Ieri h: 20:00 sereno Sereno 20 9 49 1022 10 E 7.4
Ieri h: 19:30 sereno Sereno 20 8 45 1022 10 E 11.1
Ieri h: 19:00 sereno Sereno 22 7 37 1022 10 N 5.5
Ieri h: 18:30 sereno Sereno 22 7 37 1022 10 E 11.1
Ieri h: 18:00 sereno Sereno 22 8 40 1022 10 E/SE 7.4
Ieri h: 17:30 sereno Sereno 22 8 40 1022 10 E/NE 13
Ieri h: 17:00 sereno Sereno 22 7 37 1022 10 E/NE 9.3
Ieri h: 16:30 sereno Sereno 22 9 43 1022 10 NE 9.3
Ieri h: 16:00 sereno Sereno 22 7 37 1023 10 N 7.4
Ieri h: 15:30 sereno Sereno 22 9 43 1023 10 N 7.4
Ieri h: 15:00 sereno Sereno 22 8 40 1023 10 NE 11.1
Ieri h: 14:30 sereno Sereno 21 8 43 1023 10 E 16.7
Ieri h: 14:00 sereno Sereno 21 8 43 1024 10 NE 13
Ieri h: 13:30 sereno Sereno 19 8 48 1024 10 NE 14.8
Ieri h: 13:00 sereno Sereno 20 9 49 1024 10 E/NE 14.8
Ieri h: 12:30 sereno Sereno 20 7 42 1025 10 E/NE 16.7
Ieri h: 12:00 sereno Sereno 20 9 49 1025 10 E/NE 18.5